Regional Weather Roundup
Issued by NWS

Home | Current Version | Previous Version | Graphics & Text | Print | Product List | Glossary On
Versions: 1 2 3 4 5 6 7 8 9 10 11 12 13 14 15 16 17 18 19 20 21 22 23 24 25 26 27 28 29 30 31 32 33 34 35 36 37 38 39 40 41 42 43 44 45 46 47 48 49 50
000
ASUS43 KLSX 270959
RWRMO

WEATHER SUMMARY FOR MISSOURI
NATIONAL WEATHER SERVICE SPRINGFIELD MO
500 AM CDT TUE JUN 27 2017

NOTE: "FAIR" INDICATES FEW OR NO CLOUDS BELOW 12,000 FEET WITH NO
       SIGNIFICANT WEATHER AND/OR OBSTRUCTIONS TO VISIBILITY.
       CURRENT SKY AND/OR WEATHER CONDITIONS ARE NOT AVAILABLE FOR
       CHILLICOTHE AND FARMINGTON.

MOZ001>031-035>038-043-044-053-054-271100-
...NORTHERN AND WESTERN MISSOURI...

CITY           SKY/WX    TMP DP  RH WIND       PRES   REMARKS
KANSAS CTY INT CLEAR     56  54  93 SE6       30.12F
KANSAS C DTWN  CLEAR     60  58  92 CALM      30.12S
LEE`S SUMMIT   CLEAR     57  57 100 E3        30.13S
ST JOSEPH      FOG       54  54 100 CALM      30.12F VSB 1/4
CHILLICOTHE      N/A     53  53 100 CALM      30.15S
KIRKSVILLE     CLEAR     51  48  89 NE6       30.15S

$$
MOZ066>068-077>081-088>096-101>105-271100-
...SOUTHWEST MISSOURI...

CITY           SKY/WX    TMP DP  RH WIND       PRES   REMARKS
SPRINGFIELD    CLEAR     59  58  96 E5        30.12R
JOPLIN         CLOUDY    63  62  97 E3        30.10S
BRANSON        CLOUDY    59  59 100 CALM      30.14R

$$
MOZ032>034-039>042-045>050-055>058-069>072-271100-
...CENTRAL MISSOURI...

CITY           SKY/WX    TMP DP  RH WIND       PRES   REMARKS
COLUMBIA       FOG       53  53 100 CALM      30.14F VSB 1/2
JEFFERSON CITY FOG       57  56  96 CALM      30.14F VSB 3/4
ROLLA          PTCLDY    53  53 100 CALM      30.14S
SEDALIA        PTCLDY    56  56 100 CALM      30.14S FOG
WARRENSBURG    FOG       54  52  94 CALM      30.13S VSB 1/2
OSAGE BEACH    PTCLDY    55  55 100 CALM      30.15S

$$
MOZ051-052-059>065-271100-
...EAST CENTRAL MISSOURI...

CITY           SKY/WX    TMP DP  RH WIND       PRES   REMARKS
ST LOUIS INTL  CLEAR     59  54  83 CALM      30.14S
SPIRIT OF STL  CLEAR     52  52 100 CALM      30.14R
ST CHARLES     PTCLDY    55  53  93 CALM      30.13S

$$
MOZ072>076-082>087-097>100-106>115-271100-
...SOUTH CENTRAL AND SOUTHEAST MISSOURI...

CITY           SKY/WX    TMP DP  RH WIND       PRES   REMARKS
CAPE GIRARDEAU CLEAR     58  55  90 W3        30.14R
FARMINGTON     CLEAR     54  53  97 CALM      30.16R
POPLAR BLUFF   LGT RAIN  63  62  97 NW3       30.15R
WEST PLAINS    PTCLDY    60  58  92 E3        30.16R

$$




USA.gov is the U.S. government's official web portal to all federal, state and local government web resources and services.